This is the latest recevied weather packets stored in our database for station/object SALT. If no packets are shown the sender has not sent any weather packets the latest 1 day(s).
| Time | Temp. | Humidity | Pressure | Rain* | Wind** | Luminosity | Snow |
|---|---|---|---|---|---|---|---|
| 1777985492 | 7.78° C | 67% | 1013.5 hPa | 0 mm | 1.34 m/s, 331° | - | - |
| 1777984888 | 7.22° C | 69% | 1013.5 hPa | 0 mm | 0.89 m/s, 301° | - | - |
| 1777984284 | 7.78° C | 70% | 1013.5 hPa | 0 mm | 0 m/s | - | - |
| 1777983682 | 7.22° C | 71% | 1013.5 hPa | 0 mm | 0.45 m/s, 326° | - | - |
| 1777983079 | 7.22° C | 71% | 1013.4 hPa | 0 mm | 0.45 m/s, 4° | - | - |
| 1777982476 | 7.22° C | 72% | 1013.4 hPa | 0 mm | 0 m/s | - | - |
| 1777981875 | 7.22° C | 71% | 1013.4 hPa | 0 mm | 0 m/s | - | - |
| 1777981271 | 7.78° C | 70% | 1013.4 hPa | 0 mm | 0.89 m/s, 335° | - | - |
| 1777980667 | 7.78° C | 70% | 1013.4 hPa | 0 mm | 1.34 m/s, 316° | - | - |
| 1777980064 | 7.22° C | 71% | 1013.4 hPa | 0 mm | 0 m/s | - | - |
| 1777979462 | 7.78° C | 69% | 1013.3 hPa | 0 mm | 0.45 m/s, 331° | - | - |
| 1777978858 | 7.78° C | 69% | 1013.3 hPa | 0 mm | 1.34 m/s, 346° | - | - |
| 1777978257 | 7.78° C | 69% | 1013.3 hPa | 0 mm | 0 m/s | - | - |
| 1777977653 | 7.78° C | 68% | 1013.3 hPa | 0 mm | 1.34 m/s, 322° | - | - |
| 1777977049 | 7.78° C | 68% | 1013.2 hPa | 0 mm | 2.24 m/s, 335° | - | - |
| 1777976490 | 8.33° C | 66% | 1013.2 hPa | 0 mm | 2.24 m/s, 324° | - | - |
| 1777976446 | 8.33° C | 66% | 1013.2 hPa | 0 mm | 2.24 m/s, 324° | - | - |
| 1777975844 | 8.33° C | 66% | 1013.1 hPa | 0 mm | 2.24 m/s, 316° | - | - |
| 1777975240 | 8.33° C | 66% | 1013 hPa | 0 mm | 1.79 m/s, 10° | - | - |
| 1777974639 | 8.33° C | 65% | 1013 hPa | 0 mm | 0.45 m/s, 326° | - | - |
* Rain latest 24 hours (hover to see other rain measurements)
** Current wind speed in m/s (hover to see current wind gust speed)